Location: La Sioule Rivi�re
(46.3664°N, 3.3197°E)
Time: 12:45:03
(UTC+00:00)

CZ-4B R/B - Pass Details

Date: 29 October 2020
Orbit: 389 x 462 km, 97.6° (Epoch: 23 November)

Event Time Altitude Azimuth Distance (km) Brightness Sun altitude
Rises 17:07:54 0° 18° (NNE) 2,386 4.8 -6.1°
Reaches altitude 10° 17:09:59 10° 26° (NNE) 1,502 3.7 -6.5°
Maximum altitude 17:13:04 43° 100° (E) 584 1.6 -7.0°
Drops below altitude 10° 17:16:03 10° 173° (S) 1,453 4.1 -7.5°
Sets 17:18:03 0° 181° (S) 2,296 5.2 -7.8°
